Douglas, WY

5:30 PM MDT on August 28, 2016 (GMT -0600)
Converse County

Weather History for KDGW - May, 2014

Change the Weather History Date:

Sunday, May 25, 2014

  Actual Average Record
Temperature  
Mean Temperature 59 °F 56 °F  
Max Temperature 71 °F 71 °F 86 °F (2013)
Min Temperature 47 °F 41 °F 30 °F (1993)
Degree Days  
Heating Degree Days 6 9  
Month to date heating degree days 336 325  
Since 1 July heating degree days 7455 7282  
Growing Degree Days 8 (Base 50)    
Moisture  
Dew Point 51 °F    
Average Humidity 71    
Maximum Humidity 93    
Minimum Humidity 49    
Precipitation  
Precipitation T in 0.08 in 0.18 in (2015)
Month to date precipitation 1.93 2.02  
Year to date precipitation 5.48 5.17  
Sea Level Pressure  
Sea Level Pressure 29.94 in    
Wind  
Wind Speed 8 mph (ENE)    
Max Wind Speed 17 mph    
Max Gust Speed 21 mph    
Visibility 10 miles    
Events Rain , Thunderstorm    
T = Trace of Precipitation, MM = Missing Value Source: NWS Daily Summary

Daily Weather History Graph

Daily Weather History Graph

Search for Another Location

Airport or City:

Trip Planner

Search our weather history database for the weather conditions in past years. The results will help you decide how hot, cold, wet, or windy it might be!

Date:

Astronomy

May. 25, 2014 Rise Set
Actual Time 5:30 AM MDT 8:27 PM MDT
Civil Twilight 4:56 AM MDT 9:01 PM MDT
Nautical Twilight 4:13 AM MDT 9:44 PM MDT
Astronomical Twilight 3:23 AM MDT 10:34 PM MDT
Moon 3:41 AM MDT (5/25) 5:26 PM MDT (5/25)
Length of Visible Light 16h 04m
Length of Day
14h 57m
Waning Crescent, 10% of the Moon is Illuminated
May 25
Waning Crescent
May 28
New
Jun 5
First Quarter
Jun 12
Full
Jun 19
Last Quarter

Hourly Weather History & Observations

Time (MDT) Temp. Dew Point Humidity Pressure Visibility Wind Dir Wind Speed Gust Speed Precip Events Conditions
12:53 AM 55.0 °F 52.0 °F 89% 29.86 in 10.0 mi NNE 3.5 mph - N/A   Partly Cloudy
1:53 AM 55.0 °F 48.9 °F 80% 29.87 in 10.0 mi NE 15.0 mph - N/A   Clear
3:53 AM 50.0 °F 46.0 °F 86% 29.86 in 10.0 mi Calm Calm - N/A   Clear
4:53 AM 46.9 °F 45.0 °F 93% 29.87 in 10.0 mi NNW 9.2 mph - N/A   Clear
6:53 AM 53.1 °F 48.9 °F 86% 29.93 in 10.0 mi NW 5.8 mph - N/A   Overcast
7:53 AM 57.0 °F 51.1 °F 81% 29.93 in 10.0 mi NW 6.9 mph - N/A   Overcast
9:53 AM 61.0 °F 52.0 °F 72% 29.96 in 10.0 mi NW 6.9 mph - N/A   Overcast
10:53 AM 64.9 °F 52.0 °F 63% 29.94 in 10.0 mi Variable 6.9 mph - N/A   Clear
11:53 AM 68.0 °F 51.1 °F 55% 29.93 in 10.0 mi NNE 8.1 mph - N/A   Clear
12:53 PM 70.0 °F 51.1 °F 51% 29.90 in 10.0 mi NNE 4.6 mph - N/A   Partly Cloudy
1:53 PM 70.0 °F 51.1 °F 51% 29.89 in 10.0 mi NNE 9.2 mph - N/A   Scattered Clouds
2:53 PM 69.1 °F 51.1 °F 53% 29.88 in 10.0 mi NNE 11.5 mph - N/A   Mostly Cloudy
3:53 PM 71.1 °F 52.0 °F 51% 29.87 in 10.0 mi NE 12.7 mph - N/A   Overcast
4:53 PM 66.9 °F 53.1 °F 61% 29.90 in 10.0 mi ENE 10.4 mph - N/A   Mostly Cloudy
5:18 PM 63.0 °F 53.1 °F 70% 30.01 in 10.0 mi East 8.1 mph - 0.00 in Rain , Thunderstorm Light Rain
5:38 PM 64.9 °F 53.1 °F 65% 30.01 in 10.0 mi ENE 5.8 mph - 0.00 in Thunderstorm Thunderstorm
5:53 PM 62.1 °F 52.0 °F 70% 29.92 in 10.0 mi SE 12.7 mph - 0.00 in Thunderstorm Thunderstorm
6:13 PM 59.0 °F 51.1 °F 75% 30.02 in 10.0 mi SE 9.2 mph - N/A Thunderstorm Overcast
6:39 PM 59.0 °F 52.0 °F 78% 30.03 in 10.0 mi SE 9.2 mph - N/A   Overcast
6:53 PM 59.0 °F 51.1 °F 75% 29.93 in 10.0 mi SSE 11.5 mph - N/A   Overcast
7:12 PM 59.0 °F 51.1 °F 75% 30.05 in 10.0 mi SSE 6.9 mph - N/A Thunderstorm Overcast
7:37 PM 59.0 °F 51.1 °F 75% 30.05 in 10.0 mi SSE 11.5 mph - N/A   Mostly Cloudy
7:53 PM 59.0 °F 51.1 °F 75% 29.95 in 10.0 mi SSE 8.1 mph - N/A   Mostly Cloudy
8:53 PM 57.0 °F 52.0 °F 83% 29.96 in 10.0 mi SSW 4.6 mph - N/A   Mostly Cloudy
9:53 PM 54.0 °F 51.1 °F 90% 29.98 in 10.0 mi ESE 3.5 mph - N/A   Clear
10:53 PM 53.1 °F 50.0 °F 89% 29.96 in 10.0 mi North 6.9 mph - N/A   Clear
11:53 PM 53.1 °F 50.0 °F 89% 29.96 in 10.0 mi North 4.6 mph - N/A   Clear